Location: Unspecified
(0.0000°N, 0.0000°E)
Time: 13:33:42
(UTC+00:00)

Tianhe-1 - Pass Details

Date: 12 June 2021
Orbit: 375 x 386 km, 41.5° (Epoch: 18 June)

Event Time Altitude Azimuth Distance (km) Brightness Sun altitude
Exits shadow 04:25:20 14° 346° (NNW) 1,196 3.7 -21.6°
Drops below altitude 10° 04:26:08 10° 360° (N) 1,388 4.2 -21.4°
Sets 04:28:42 0° 21° (NNE) 2,240 5.6 -20.9°
